KLM018 EHAM-EFHK

Flight info

Callsign KLM018
Flight time N/A
Altitude 39000
Route ANDIK N873 JUIST DCT DOSUR DCT RASMU DCT ROGMI DCT ALAMI DCT OKEVU DCT EVADI Y370 DIVAM
Aircraft B77W/H-SDE1E2E3FGHIJ2J3J4J5M1RWXY/LB1D1

Departure

Time N/A
Airport Amsterdam Airport Schiphol (EHAM)

Arrival

Time 2026-05-03 20:27
Airport Helsinki Vantaa Airport (EFHK)
Time Latitude Longitude Altitude Speed Heading
2026-05-03 20:15 60.24466 25.03762 3966 ft 252 kts 46°
2026-05-03 20:15 60.25626 25.06319 3598 ft 242 kts 46°
2026-05-03 20:15 60.26902 25.08385 3158 ft 232 kts 20°
2026-05-03 20:15 60.28437 25.09185 2738 ft 223 kts 11°
2026-05-03 20:16 60.29898 25.09888 2395 ft 214 kts 12°
2026-05-03 20:16 60.31312 25.10595 2076 ft 202 kts 12°
2026-05-03 20:16 60.32631 25.11255 2047 ft 196 kts 12°
2026-05-03 20:16 60.33984 25.11927 2021 ft 203 kts 12°
2026-05-03 20:17 60.35369 25.12450 1986 ft 201 kts 356°
2026-05-03 20:17 60.36664 25.11583 2001 ft 193 kts 332°
2026-05-03 20:17 60.37824 25.10368 2027 ft 183 kts 332°
2026-05-03 20:17 60.38908 25.09258 1986 ft 171 kts 332°
2026-05-03 20:18 60.39952 25.08191 1987 ft 166 kts 332°
2026-05-03 20:18 60.40990 25.07124 2003 ft 167 kts 332°
2026-05-03 20:18 60.41995 25.05957 1985 ft 165 kts 322°
2026-05-03 20:18 60.43001 25.04957 1979 ft 161 kts 353°
2026-05-03 20:19 60.44106 25.04966 2026 ft 160 kts 359°
2026-05-03 20:19 60.45212 25.04959 2002 ft 159 kts 358°
2026-05-03 20:19 60.46293 25.04752 1996 ft 153 kts 346°
2026-05-03 20:19 60.47367 25.04212 2039 ft 169 kts 344°
2026-05-03 20:20 60.48535 25.03600 2023 ft 178 kts 345°
2026-05-03 20:20 60.49790 25.02937 2039 ft 197 kts 344°
2026-05-03 20:20 60.51113 25.02221 1996 ft 194 kts 341°
2026-05-03 20:20 60.52271 25.00861 1994 ft 193 kts 315°
2026-05-03 20:21 60.53019 24.98612 1992 ft 191 kts 290°
2026-05-03 20:21 60.53212 24.96032 2000 ft 184 kts 275°
2026-05-03 20:21 60.53307 24.93405 2019 ft 197 kts 275°
2026-05-03 20:21 60.53410 24.90653 2001 ft 194 kts 275°
2026-05-03 20:22 60.53471 24.87764 2012 ft 216 kts 266°
2026-05-03 20:22 60.52948 24.84934 2020 ft 220 kts 239°
2026-05-03 20:22 60.51944 24.82665 2010 ft 220 kts 224°
2026-05-03 20:22 60.50628 24.81188 1979 ft 216 kts 190°
2026-05-03 20:23 60.49191 24.81579 2003 ft 204 kts 165°
2026-05-03 20:23 60.47831 24.82280 2008 ft 202 kts 168°
2026-05-03 20:23 60.46463 24.82868 2001 ft 201 kts 169°
2026-05-03 20:23 60.45178 24.83742 1986 ft 186 kts 155°
2026-05-03 20:24 60.44103 24.84883 1945 ft 164 kts 153°
2026-05-03 20:24 60.43156 24.85900 1979 ft 151 kts 153°
2026-05-03 20:24 60.42216 24.86896 2007 ft 153 kts 153°
2026-05-03 20:24 60.41264 24.87902 2022 ft 156 kts 153°
2026-05-03 20:25 60.40294 24.88928 2006 ft 157 kts 153°
2026-05-03 20:25 60.39335 24.89944 1988 ft 159 kts 152°
2026-05-03 20:25 60.38337 24.91042 1549 ft 167 kts 152°
2026-05-03 20:25 60.37323 24.92097 996 ft 158 kts 154°
2026-05-03 20:26 60.36392 24.93014 717 ft 134 kts 153°
2026-05-03 20:26 60.35550 24.93891 726 ft 136 kts 152°
2026-05-03 20:26 60.34704 24.94758 560 ft 138 kts 154°
2026-05-03 20:26 60.33837 24.95630 400 ft 141 kts 153°
2026-05-03 20:27 60.32937 24.96541 237 ft 145 kts 153°
2026-05-03 20:27 60.32072 24.97429 161 ft 131 kts 153°
2026-05-03 20:27 60.31475 24.98041 159 ft 62 kts 153°
2026-05-03 20:27 60.31137 24.98387 162 ft 46 kts 154°
2026-05-03 20:28 60.31011 24.98404 160 ft 0 kts 211°
2026-05-03 20:28 60.31010 24.98403 160 ft 0 kts 213°
2026-05-03 20:28 60.31007 24.98396 160 ft 5 kts 220°
2026-05-03 20:29 60.30981 24.98282 162 ft 10 kts 269°
2026-05-03 20:29 60.31001 24.98201 163 ft 10 kts 316°
2026-05-03 20:29 60.31098 24.98100 163 ft 13 kts 333°
2026-05-03 20:29 60.31176 24.98019 164 ft 13 kts 332°
2026-05-03 20:30 60.31229 24.97961 163 ft 13 kts 332°
2026-05-03 20:30 60.31306 24.97877 163 ft 13 kts 331°
2026-05-03 20:30 60.31385 24.97795 161 ft 13 kts 334°
2026-05-03 20:30 60.31468 24.97711 161 ft 14 kts 333°
2026-05-03 20:31 60.31551 24.97626 161 ft 14 kts 333°
2026-05-03 20:31 60.31635 24.97537 163 ft 14 kts 332°